ISS (ZARYA) 1 25544U 98067A 25347.57296250 .00012521 00000+0 23044-3 0 9993 2 25544 51.6303 138.3533 0003230 244.1175 115.9481 15.49569091542984 CSS (TIANHE) 1 48274U 21035A 25347.54735425 .00023242 00000+0 29086-3 0 9992 2 48274 41.4684 11.8051 0008179 37.3165 322.8241 15.59213599264159 ISS (NAUKA) 1 49044U 21066A 25347.57296250 .00012521 00000+0 23044-3 0 9999 2 49044 51.6303 138.3533 0003230 244.1175 115.9481 15.49569091230440 FREGAT DEB 1 49271U 11037PF 25346.00430780 .00005011 00000+0 11363-1 0 9998 2 49271 51.6357 201.6036 0863879 222.0892 131.0409 12.34426205201848 CSS (WENTIAN) 1 53239U 22085A 25347.54735425 .00023242 00000+0 29086-3 0 9995 2 53239 41.4684 11.8051 0008179 37.3165 322.8241 15.59213599173841 CSS (MENGTIAN) 1 54216U 22143A 25347.54735425 .00023242 00000+0 29086-3 0 9996 2 54216 41.4684 11.8051 0008179 37.3165 322.8241 15.59213599158648 SHENZHOU-20 (SZ-20) 1 63632U 25082A 25347.54735425 .00023242 00000+0 29086-3 0 9993 2 63632 41.4684 11.8051 0008179 37.3165 322.8241 15.59213599255301 PROGRESS-MS 31 1 64751U 25146A 25347.57296250 .00012521 00000+0 23044-3 0 9994 2 64751 51.6303 138.3533 0003230 244.1175 115.9481 15.49569091 6757 TIANZHOU-9 1 64786U 25149A 25347.54735425 .00023242 00000+0 29086-3 0 9998 2 64786 41.4684 11.8051 0008179 37.3165 322.8241 15.59213599255302 CREW DRAGON 11 1 65077U 25166A 25347.57296250 .00012521 00000+0 23044-3 0 9998 2 65077 51.6303 138.3533 0003230 244.1175 115.9481 15.49569091 2148 DRAGON CRS-33 1 65304U 25186A 25347.57296250 .00012521 00000+0 23044-3 0 9993 2 65304 51.6303 138.3533 0003230 244.1175 115.9481 15.49569091 116 PROGRESS-MS 32 1 65586U 25204A 25347.57296250 .00012521 00000+0 23044-3 0 9996 2 65586 51.6303 138.3533 0003230 244.1175 115.9481 15.49569091 275 CYGNUS NG-23 1 65616U 25208A 25347.57296250 .00012521 00000+0 23044-3 0 9994 2 65616 51.6303 138.3533 0003230 244.1175 115.9481 15.49569091 224 DRAGONFLY 1 65729U 98067XH 25347.69198777 .00179632 00000+0 13021-2 0 9990 2 65729 51.6241 130.8872 0006817 284.2780 75.7461 15.72310549 13317 1998-067XK 1 65731U 98067XK 25347.69153018 .00104411 00000+0 99454-3 0 9990 2 65731 51.6277 132.4028 0005022 252.6654 107.3793 15.65971562 13293 RSP-03 1 65732U 98067XL 25347.69463906 .00138092 00000+0 11602-2 0 9991 2 65732 51.6251 131.6633 0005764 257.9098 102.1253 15.68925685 13317 GHS-01 1 65733U 98067XM 25347.64190642 .00231510 00000+0 14639-2 0 9993 2 65733 51.6271 130.5592 0007396 286.1274 73.8911 15.75321114 13326 YOTSUBA-KULOVER 1 65941U 98067XN 25346.71267056 .00088760 00000+0 10939-2 0 9991 2 65941 51.6283 140.1142 0001404 246.8378 113.2466 15.59447843 9857 BOTAN 1 65942U 98067XP 25347.61342704 .00110558 00000+0 11782-2 0 9994 2 65942 51.6279 134.8795 0003001 244.7732 115.2952 15.63119273 10002 E-KAGAKU-1 1 65943U 98067XQ 25344.27717868 .00100705 00000+0 12589-2 0 9990 2 65943 51.6298 152.3458 0005250 191.2269 168.8608 15.59004320 9476 HRC MONOBLOCK CAMERA 1 66052U 98067XR 25347.67997314 .00042763 00000+0 64745-3 0 9996 2 66052 51.6291 136.8186 0003186 188.7362 171.3574 15.54222360 8984 HTV-X1 1 66174U 25241A 25347.57296250 .00012521 00000+0 23044-3 0 9991 2 66174 51.6303 138.3533 0003230 244.1175 115.9481 15.49569091 516 SZ-21 MODULE 1 66515U 25246C 25347.24231733 .00039667 00000+0 43386-3 0 9995 2 66515 41.4775 12.9802 0006286 263.0797 96.9328 15.62521016 4528 SHENZHOU-22 1 66645U 25272A 25347.54735425 .00023242 00000+0 29086-3 0 9991 2 66645 41.4684 11.8051 0008179 37.3165 322.8241 15.59213599263576 SOYUZ-MS 28 1 66664U 25275A 25347.57296250 .00012521 00000+0 23044-3 0 9992 2 66664 51.6303 138.3533 0003230 244.1175 115.9481 15.49569091 1285 1998-067XS 1 66906U 98067XS 25347.69601762 .00031569 00000+0 54649-3 0 9999 2 66906 51.6301 137.6756 0003538 207.2651 152.8153 15.50633628 1760 1998-067XT 1 66907U 98067XT 25347.69272263 .00067037 00000+0 11074-2 0 9993 2 66907 51.6303 137.6541 0004366 232.3065 127.7529 15.51604707 1768 1998-067XU 1 66908U 98067XU 25347.69234256 .00071410 00000+0 11749-2 0 9993 2 66908 51.6298 137.6510 0004467 231.5910 128.4679 15.51689462 1765 SILVERSAT 1 66909U 98067XV 25347.69190829 .00073490 00000+0 12038-2 0 9993 2 66909 51.6299 137.6482 0004351 233.7111 126.3477 15.51801579 1762 1998-067XW 1 66910U 98067XW 25347.69034568 .00065203 00000+0 10657-2 0 9990 2 66910 51.6299 137.6381 0005084 213.9756 146.0909 15.51910394 1766 1998-067XX 1 66911U 98067XX 25347.68946758 .00077443 00000+0 12499-2 0 9998 2 66911 51.6299 137.6321 0004802 215.3057 144.7616 15.52189321 1756 1998-067XY 1 66912U 98067XY 25347.69388395 .00053126 00000+0 89167-3 0 9996 2 66912 51.6303 137.6613 0004501 228.8979 131.1622 15.51258263 1753